Location: �terpigny
(49.8910°N, 2.9249°E)
Time: 15:33:20
(UTC+00:00)

Feng Yun 1-1 Rocket - Pass Details

Date: 24 October 2021
Orbit: 830 x 933 km, 99.2° (Epoch: 27 November)

Event Time Altitude Azimuth Distance (km) Brightness Sun altitude
Rises 18:22:59 0° 166° (SSE) 3,427 7.2 -17.3°
Reaches altitude 10° 18:25:19 10° 167° (SSE) 2,509 6.5 -17.7°
Maximum altitude 18:30:55 79° 254° (WSW) 907 4.4 -18.6°
Drops below altitude 10° 18:36:43 10° 342° (NNW) 2,596 7.0 -19.5°
Sets 18:39:10 0° 344° (NNW) 3,555 7.7 -19.9°
